Location: Chanteloup
(48.8560°N, 2.7390°E)
Time: 23:26:00
(UTC+00:00)

Cosmos 2322 Rocket - Pass Details

Date: 30 May 2022
Orbit: 833 x 851 km, 71.0° (Epoch: 06 July)

Event Time Altitude Azimuth Distance (km) Brightness Sun altitude
Exits shadow 21:13:16 - 195° (SSW) 3,403 5.0 -11.4°
Rises 21:13:22 0° 195° (SSW) 3,367 5.0 -11.5°
Reaches altitude 10° 21:15:49 10° 192° (SSW) 2,436 4.2 -11.7°
Maximum altitude 21:21:19 63° 113° (ESE) 929 2.2 -12.2°
Drops below altitude 10° 21:26:51 10° 33° (NNE) 2,453 4.9 -12.7°
Sets 21:29:19 0° 31° (NNE) 3,392 5.7 -12.9°
